Location: Quaker Farms
(41.4276°N, 73.1557°W)
Time: 23:08:49
(UTC+00:00)

Vanguard 1 - Pass Details

Date: 21 June 2021
Orbit: 651 x 3832 km, 34.2° (Epoch: 26 July)

Event Time Altitude Azimuth Distance (km) Brightness Sun altitude
Rises 02:25:40 0° 245° (WSW) 7,884 14.8 -16.5°
Reaches altitude 10° 02:31:03 10° 243° (WSW) 6,929 14.5 -17.1°
Maximum altitude 02:53:55 65° 169° (S) 3,505 12.5 -19.4°
Drops below altitude 10° 03:09:09 10° 92° (E) 4,883 13.3 -20.7°
Sets 03:12:11 0° 89° (E) 5,548 13.7 -20.9°
